Location: Santaluz Observatory
(32.9930°N, 117.1510°W)
Time: 20:36:40
(UTC-07:00)

Hubble Space Telescope - Visible Passes

Search period start: 26 June 2017 00:00
Search period end: 06 July 2017 00:00
Orbit: 538 x 541 km, 28.5° (Epoch: 26 June)

Date Brightness Start Highest point End Pass type
(mag) Time Alt. Az. Time Alt. Az. Time Alt. Az.
30 Jun 3.2 03:32:21 11° SE 03:32:21 11° SE 03:32:54 10° SE visible
30 Jun 1.8 05:07:54 10° SW 05:11:37 32° SSE 05:15:20 10° ESE visible
01 Jul 3.2 03:22:40 12° SE 03:22:40 12° SE 03:23:21 10° ESE visible
01 Jul 1.6 04:58:02 12° SW 05:01:30 36° S 05:05:18 10° ESE visible
02 Jul 3.3 03:13:00 13° ESE 03:13:00 13° ESE 03:13:36 10° ESE visible
02 Jul 1.4 04:48:21 15° WSW 04:51:22 39° S 04:55:15 10° ESE visible
03 Jul 3.4 03:03:21 12° ESE 03:03:21 12° ESE 03:03:44 10° ESE visible
03 Jul 1.3 04:38:43 19° WSW 04:41:15 42° S 04:45:11 10° ESE visible
04 Jul 3.6 02:53:44 10° ESE 02:53:44 10° ESE 02:53:47 10° ESE visible
04 Jul 1.2 04:29:05 24° SW 04:31:08 44° S 04:35:06 10° ESE visible
05 Jul 1.1 04:19:32 31° SW 04:21:02 44° S 04:25:00 10° ESE visible
